Casper, WY

11:46 PM MDT on July 27, 2017 (GMT -0600)
Natrona County International

Weather History for KCPR - January, 2014

Change the Weather History Date:

Friday, January 31, 2014

  Actual Average Record
Temperature  
Mean Temperature 20 °F 25 °F  
Max Temperature 29 °F 35 °F 58 °F (1971)
Min Temperature 10 °F 14 °F -24 °F (1996)
Degree Days  
Heating Degree Days 45 40  
Month to date heating degree days 1262 1245  
Since 1 July heating degree days 4482 4377  
Cooling Degree Days 0 0  
Month to date cooling degree days 0 0  
Year to date cooling degree days 0 0  
Moisture  
Dew Point 15 °F    
Average Humidity 80    
Maximum Humidity 92    
Minimum Humidity 68    
Precipitation  
Precipitation 0.00 in 0.02 in 0.18 in (1981)
Month to date precipitation 0.74 0.51  
Year to date precipitation 0.74 0.51  
Snow  
Snow 0.00 in 0.30 in - ()
Month to date snowfall 14.2 9.1  
Since 1 July snowfall 54.7 39.6  
Snow Depth T in    
Sea Level Pressure  
Sea Level Pressure 29.84 in    
Wind  
Wind Speed 9 mph (WSW)    
Max Wind Speed 22 mph    
Max Gust Speed 28 mph    
Visibility 10 miles    
Events      
T = Trace of Precipitation, MM = Missing Value Source: NWS Daily Summary

Daily Weather History Graph

Daily Weather History Graph

Search for Another Location

Airport or City:

Trip Planner

Search our weather history database for the weather conditions in past years. The results will help you decide how hot, cold, wet, or windy it might be!

Date:

Astronomy

Jan. 31, 2014 Rise Set
Actual Time 7:21 AM MST 5:17 PM MST
Civil Twilight 6:51 AM MST 5:47 PM MST
Nautical Twilight 6:17 AM MST 6:21 PM MST
Astronomical Twilight 5:44 AM MST 6:54 PM MST
Moon 7:30 AM MST (1/31) 6:48 PM MST (1/31)
Length of Visible Light 10h 56m
Length of Day
9h 55m
New Moon, 1% of the Moon is Illuminated
Jan 31
New Moon
Feb 6
First Quarter
Feb 14
Full
Feb 22
Last Quarter
Mar 1
New

Hourly Weather History & Observations

Time (MST) Temp. Windchill Dew Point Humidity Pressure Visibility Wind Dir Wind Speed Gust Speed Precip Events Conditions
12:53 AM 12.0 °F 5.9 °F 8.1 °F 84% 29.94 in 10.0 mi NW 3.5 mph - N/A   Overcast
1:53 AM 12.0 °F - 9.0 °F 88% 29.93 in 10.0 mi Calm Calm - N/A   Overcast
2:53 AM 12.9 °F 6.9 °F 9.0 °F 84% 29.93 in 10.0 mi WSW 3.5 mph - N/A   Overcast
3:53 AM 15.1 °F 2.5 °F 10.9 °F 84% 29.91 in 10.0 mi WSW 10.4 mph - N/A   Overcast
4:32 AM 14.0 °F -0.2 °F 10.9 °F 88% 29.73 in 10.0 mi SW 12.7 mph - N/A   Mostly Cloudy
4:53 AM 14.0 °F 0.5 °F 10.9 °F 88% 29.91 in 10.0 mi SW 11.5 mph - N/A   Scattered Clouds
5:38 AM 16.0 °F 3.6 °F 12.9 °F 88% 29.73 in 10.0 mi SW 10.4 mph - N/A   Mostly Cloudy
5:45 AM 16.0 °F 2.3 °F 12.9 °F 88% 29.73 in 10.0 mi SW 12.7 mph - N/A   Mostly Cloudy
5:53 AM 16.0 °F 1.7 °F 12.9 °F 88% 29.91 in 10.0 mi SW 13.8 mph - N/A   Overcast
6:53 AM 18.0 °F 4.2 °F 15.1 °F 88% 29.88 in 10.0 mi WSW 13.8 mph - N/A   Mostly Cloudy
7:53 AM 19.0 °F 6.1 °F 15.1 °F 85% 29.88 in 10.0 mi WSW 12.7 mph - N/A   Mostly Cloudy
8:37 AM 19.9 °F 6.2 °F 16.0 °F 85% 29.71 in 10.0 mi SW 15.0 mph - N/A   Overcast
8:53 AM 19.9 °F 6.2 °F 16.0 °F 85% 29.87 in 10.0 mi SW 15.0 mph - N/A   Overcast
9:16 AM 21.0 °F 7.1 °F 17.1 °F 85% 29.70 in 10.0 mi SSW 16.1 mph - N/A   Scattered Clouds
9:53 AM 24.1 °F 12.0 °F 17.1 °F 75% 29.85 in 10.0 mi SSW 13.8 mph 19.6 mph N/A   Clear
10:53 AM 25.0 °F 12.6 °F 18.0 °F 75% 29.88 in 10.0 mi SW 15.0 mph 23.0 mph N/A   Partly Cloudy
11:53 AM 26.1 °F 16.2 °F 18.0 °F 71% 29.84 in 10.0 mi West 10.4 mph - N/A   Clear
12:53 PM 27.0 °F 16.7 °F 18.0 °F 69% 29.78 in 10.0 mi West 11.5 mph - N/A   Clear
1:53 PM 28.0 °F 17.5 °F 19.0 °F 69% 29.79 in 10.0 mi West 12.7 mph - N/A   Clear
2:53 PM 28.0 °F 17.5 °F 19.9 °F 72% 29.78 in 10.0 mi WSW 12.7 mph - N/A   Clear
3:53 PM 27.0 °F 20.5 °F 19.9 °F 75% 29.79 in 10.0 mi WSW 5.8 mph - N/A   Clear
4:53 PM 25.0 °F 17.1 °F 18.0 °F 75% 29.82 in 10.0 mi WNW 6.9 mph - N/A   Clear
5:53 PM 21.9 °F 14.5 °F 17.1 °F 82% 29.84 in 10.0 mi West 5.8 mph - N/A   Partly Cloudy
6:53 PM 19.9 °F 11.1 °F 17.1 °F 89% 29.86 in 10.0 mi West 6.9 mph - N/A   Partly Cloudy
7:53 PM 19.0 °F 10.0 °F 14.0 °F 81% 29.86 in 10.0 mi NW 6.9 mph - N/A   Partly Cloudy
8:53 PM 18.0 °F 9.8 °F 12.9 °F 81% 29.88 in 10.0 mi North 5.8 mph - N/A   Clear
9:53 PM 17.1 °F 11.7 °F 12.9 °F 84% 29.89 in 10.0 mi WNW 3.5 mph - N/A   Overcast
10:53 PM 16.0 °F 6.3 °F 12.9 °F 88% 29.90 in 10.0 mi North 6.9 mph - N/A   Mostly Cloudy
11:20 PM 16.0 °F 7.4 °F 12.9 °F 88% 29.77 in 10.0 mi North 5.8 mph - N/A   Mostly Cloudy
11:53 PM 18.0 °F - 12.9 °F 81% 29.90 in 10.0 mi Calm Calm - N/A   Overcast